Regional Weather Roundup
Issued by NWS Jackson, KY

Home | Current Version | Previous Version | Text Only | Print | Product List | Glossary On
Versions: 1 2 3 4 5 6 7 8 9 10 11 12 13 14 15 16 17 18 19 20 21 22 23 24 25 26 27 28 29 30 31 32 33 34 35 36 37 38 39 40 41 42 43 44 45 46 47 48 49 50
000
ASUS43 KJKL 211119
RWRJKL

EAST KENTUCKY HOURLY WEATHER ROUNDUP
NATIONAL WEATHER SERVICE JACKSON KY
700 AM EDT SUN SEP 21 2014

NOTE: "FAIR" INDICATES FEW OR NO CLOUDS BELOW 12,000 FEET WITH
NO SIGNIFICANT WEATHER AND/OR OBSTRUCTIONS TO VISIBILITY.

* THESE REPORTS ARE NOT UNDER NWS QUALITY CONTROL AND MAY NOT
  REPORT WEATHER SUCH AS PRECIPITATION AND FOG.

KYZ079-080-083-085-087-088-110-112-115-119-120-211200
...EASTERN KENTUCKY...

CITY           SKY/WX    TMP DP  RH WIND       PRES   REMARKS
JACKSON        CLEAR     63  60  90 CALM      29.94F
LONDON         CLEAR     64  60  87 SW3       29.97F
SOMERSET*      PTCLDY    61  61 100 CALM      29.97S FOG
MONTICELLO*    CLEAR     60  59  97 SW5       29.97F
WILLIAMSBURG*  CLEAR     63  63 100 SW6       29.98
MIDDLESBORO*   FOG       59  59 100 CALM      30.00S VSB 1/4
HARLAN APT*    CLOUDY    59  59 100 MISG      30.01S VSB<1/4
BLACK MTN*       N/A     61  59  94 SW1         N/A
PIKEVILLE APT* MOCLDY    63  61  94 S3        29.96S
BIG SANDY*     PTSUNNY   64  62  93 SW3       29.94S
MOREHEAD APT*  MOSUNNY   68  64  88 SW12      29.91F
$$

KYZ035-036-041-042-044-050-067-078-099-211200
...CENTRAL KENTUCKY...

CITY           SKY/WX    TMP DP  RH WIND       PRES   REMARKS
MT STERLING*   CLEAR     64  64 100 SW8       29.91S
FLEMING/MASON* CLEAR     66  64  94 SW9       29.87F
DANVILLE*      CLEAR     63  63 100 S9        29.93S
RICHMOND*      CLEAR     66  63  88 S7        29.92F
LEXINGTON      PTCLDY    69  64  84 SW10      29.89F
FRANKFORT      MOCLDY    69  65  86 SW12      29.86F
$$

KYZ091>093-OHZ055-061-077-WVZ005-015-034-035-042-211200
...SOUTHERN OHIO/WEST VIRGINIA...

CITY           SKY/WX    TMP DP  RH WIND       PRES   REMARKS
COVINGTON      MOCLDY    72  65  78 W8        29.83F
COLUMBUS       CLOUDY    72  63  73 SW8       29.78S
DAYTON         CLOUDY    71  67  87 W13       29.80S
WILMINGTON     MOCLDY    68  64  87 SW9       29.81F
HUNTINGTON     CLEAR     65  62  90 S8        29.88F
CHARLESTON     CLEAR     62  61  96 CALM      29.90S
PINEVILLE*     FOG       59  59 100 MISG      30.03S VSB 3/4
BECKLEY        PTCLDY    57  53  86 S3        29.99S
BLUEFIELD      PTCLDY    61  53  75 SW5       30.02F
$$

VAZ002-007-008-TNZ017-027-036-066-071-211200
...SOUTHWEST VIRGINIA/EAST TENNESSEE...

CITY           SKY/WX    TMP DP  RH WIND       PRES   REMARKS
WISE*          CLEAR     55  55 100 SW6       30.04S
JONESVILLE*    FOG       57  57 100 CALM      30.03S VSB<1/4
ABINGDON*      MOCLDY    56  56 100 CALM      30.03R FOG
BRISTOL        MOCLDY    56  54  93 NE3       30.02R
KNOXVILLE      PTCLDY    63  61  93 W6        30.00R
OAK RIDGE      MOCLDY    63  62  97 SW3       30.02R FOG
CROSSVILLE     CLEAR     63  58  83 VRB3      30.04S
NASHVILLE      PTCLDY    66  63  90 S3        29.97S
$$

...KEY TO REMARKS...
VSB - VISIBILITY IN MILES
WCI - WIND CHILL INDEX
HX  - HEAT INDEX

$$


USA.gov is the U.S. government's official web portal to all federal, state and local government web resources and services.